Weather observations for the past three days for
Jones Field - Bonham
Imperial (Metric)
Date Time (cdt) Wind (mph) Vis. (mi.) Weather Sky Cond. Temperature (ºF) Relative Humidity Wind Chill (°F) Heat Index (°F) Pressure Precipitation (in)
Air Dwpt 6 hour altimeter (in) sea level (mb) 1 hr 3 hr 6 hr
Max. Min.
20 13:55 S 5 10.00 Fair CLR 87.8 64.4 46% 89 30.05 0.0
20 13:35 NW 6 10.00 Fair CLR 88.3 64.4 45% 90 30.06 0.0
20 13:15 Calm 10.00 Fair CLR 86.9 63.7 46% 88 30.07 0.0
20 12:55 Calm 10.00 Fair CLR 86.5 66.6 87.1 68.5 51% 89 30.08 0.0
20 12:35 SE 3 10.00 Fair CLR 86 66.9 53% 89 30.09 0.0
20 12:15 Calm 10.00 Partly Cloudy SCT045 85.8 63.5 47% 87 30.09 0.0
20 11:55 SE 6 10.00 Fair CLR 85.8 65.3 50% 88 30.1 0.0
20 11:35 Calm 10.00 Fair CLR 84.7 65.8 53% 87 30.1 0.0
20 11:15 SW 5 10.00 Fair CLR 82.6 65.8 57% 85 30.11 0.0
20 10:55 Calm 10.00 Fair CLR 82.6 67.5 60% 85 30.11 0.0
20 10:35 Calm 10.00 Fair CLR 81.1 67.1 62% 84 30.11 0.0
20 10:15 S 3 10.00 Fair CLR 79.5 68 68% 82 30.11 0.0
20 09:55 S 6 10.00 Fair CLR 78.3 68.2 71% 80 30.11 0.0
20 09:35 S 6 10.00 Fair CLR 77.5 68.7 74% 79 30.11 0.0
20 09:15 S 8 10.00 Fair CLR 76.5 68.7 77% 78 30.1 0.0
20 08:55 SE 6 10.00 Fair CLR 74.7 67.6 79% 30.11 0.0
20 08:35 SE 5 10.00 Fair CLR 73.8 67.8 82% 30.1 0.0
20 08:15 SE 7 10.00 Fair CLR 72.3 66.9 83% 30.08 0.0
20 07:55 SE 5 10.00 Fair CLR 71.2 66.6 85% 30.09 0.0
20 07:35 SE 3 10.00 Fair CLR 70.2 66.6 88% 30.08 0.0
20 07:15 SE 3 10.00 Fair CLR 69.3 66.4 91% 30.07 0.0
20 06:55 SE 3 10.00 Fair CLR 68.5 66.2 71.4 67.8 92% 30.07 0.0
20 06:35 SE 3 10.00 Fair CLR 68 65.8 93% 30.06 0.0
20 06:15 Calm 10.00 Fair CLR 68.4 65.8 92% 30.06 0.0
20 05:55 Calm 10.00 Fair CLR 68.5 65.8 91% 30.07 0.0
20 05:35 SE 3 10.00 Fair CLR 69.4 65.5 87% 30.07 0.0
20 05:15 Calm 10.00 Fair CLR 69.3 65.8 89% 30.07 0.0
20 04:35 SE 3 10.00 Fair CLR 69.6 66.2 89% 30.06 0.0
20 04:15 SE 3 10.00 Fair CLR 69.3 66.4 91% 30.06 0.0
20 03:55 SE 5 10.00 Fair CLR 69.8 66.2 88% 30.05 0.0
20 03:35 S 5 10.00 Fair CLR 70 66 87% 30.05 0.0
20 03:15 SE 5 10.00 Fair CLR 70.7 66 85% 30.05 0.0
20 02:55 SE 5 10.00 Fair CLR 71.1 65.5 83% 30.04 0.0
20 02:35 SE 5 10.00 Fair CLR 71.1 65.3 82% 30.03 0.0
20 02:15 SE 6 10.00 Fair CLR 71.1 65.3 82% 30.04 0.0
20 01:55 SE 7 10.00 Fair CLR 71.2 65.1 81% 30.03 0.0
20 01:35 SE 7 10.00 Fair CLR 70.7 65.8 85% 30.03 0.0
20 01:15 SE 5 10.00 Fair CLR 70.7 66.6 87% 30.03 0.0
20 00:55 E 6 10.00 Fair CLR 71.2 66 87.4 70.9 84% 30.03 0.0
20 00:35 S 5 10.00 Fair CLR 72 65.7 81% 30.04 0.0
20 00:15 S 5 10.00 Fair CLR 72.1 65.7 80% 30.04 0.0
19 23:55 S 6 10.00 Fair CLR 73.2 65.5 77% 30.04 0.0
19 23:35 S 6 10.00 Fair CLR 74.3 65.3 74% 30.04 0.0
19 23:15 S 5 10.00 Fair CLR 73.8 65.7 76% 30.04 0.0
19 22:55 S 5 10.00 Partly Cloudy SCT070 74.3 65.8 75% 30.05 0.0
19 22:35 SE 6 10.00 Partly Cloudy SCT070 75.9 64.9 69% 78 30.04 0.0
19 22:15 SE 6 10.00 Fair CLR 77 64.6 66% 79 30.04 0.0
19 21:55 SE 5 10.00 Fair CLR 77 65.1 67% 79 30.04 0.0
19 21:35 S 5 10.00 Partly Cloudy SCT070 77.2 66.2 69% 79 30.03 0.0
19 21:15 S 5 10.00 Fair CLR 77.7 65.8 67% 80 30.02 0.0
19 20:55 SE 5 10.00 Rain CLR 78.6 66.7 67% 81 30.01 0.0
19 20:35 Calm 10.00 Fair CLR 79.9 68.2 68% 82 30 0.0
19 20:15 E 3 10.00 Fair CLR 83.7 63.9 51% 85 30 0.0
19 19:55 E 5 10.00 Fair CLR 85.1 63 48% 86 30 0.0
19 19:35 E 5 10.00 Fair CLR 86.5 61.3 43% 87 30 0.0
19 19:15 E 3 10.00 Fair CLR 87.3 60.6 41% 87 30 0.0
19 18:55 E 5 10.00 Fair CLR 87.3 61 89.6 83.1 41% 87 30 0.0
19 18:35 E 3 10.00 Partly Cloudy SCT070 87.6 59.9 39% 87 30.01 0.0
19 18:15 E 7 10.00 Mostly Cloudy BKN070 88.3 60.3 39% 88 30.01 0.0
19 17:55 S 7 10.00 Fair CLR 88.7 60.4 39% 88 30.01 0.0
19 17:35 SE 3 10.00 Fair CLR 88.3 60.3 39% 88 30.01 0.0
19 17:15 Calm 10.00 Fair CLR 88 58.8 37% 87 30.01 0.0
19 16:55 Calm 10.00 Fair CLR 88.3 59.7 38% 88 30.02 0.0
19 16:35 N 7 10.00 Fair CLR 87.8 60.6 40% 88 30.02 0.0
19 16:15 N 6 10.00 Fair CLR 88.2 61.9 41% 89 30.03 0.0
19 15:55 NW 3 10.00 Fair CLR 87.3 61.5 42% 87 30.03 0.0
19 15:35 E 6 10.00 Fair CLR 88.5 63 43% 89 30.04 0.0
19 15:15 NW 6 10.00 Fair CLR 86.9 62.1 43% 87 30.04 0.0
19 14:55 N 3 10.00 Fair CLR 86.9 63 45% 88 30.05 0.0
19 14:35 NE 7 10.00 Fair CLR 86.2 62.1 44% 87 30.06 0.0
19 14:15 SE 5 10.00 Fair CLR 86.9 61.5 43% 87 30.08 0.0
19 13:55 N 6 10.00 Fair CLR 86 62.2 45% 87 30.08 0.0
19 13:35 N 5 10.00 Partly Cloudy SCT050 85.3 61.2 44% 86 30.09 0.0
19 13:15 NW 6 10.00 Partly Cloudy SCT050 85.8 62.6 46% 87 30.1 0.0
19 12:55 S 3 10.00 Partly Cloudy SCT050 85.3 63.5 86.2 69.6 48% 86 30.11 0.0
19 12:35 NE 3 10.00 Partly Cloudy SCT055 84.7 63.1 48% 86 30.11 0.0
19 12:15 E 5 10.00 Fair CLR 84.4 63.3 49% 85 30.11 0.0
19 11:35 E 7 10.00 Fair CLR 83.5 63.9 52% 85 30.12 0.0
19 11:15 E 5 10.00 Fair CLR 82.2 64.2 55% 84 30.13 0.0
19 10:55 E 5 10.00 Fair CLR 81.9 64.9 57% 84 30.13 0.0
19 10:35 E 8 10.00 Fair CLR 81.3 64.8 57% 83 30.13 0.0
19 10:15 E 7 10.00 Fair CLR 80.4 64.2 58% 82 30.13 0.0
19 09:55 E 9 10.00 Fair CLR 80.1 64.2 59% 82 30.13 0.0
19 09:35 E 6 10.00 Fair CLR 79.2 66.2 65% 81 30.13 0.0
19 09:15 E 9 10.00 Fair CLR 78.3 65.5 65% 80 30.13 0.0
19 08:55 E 8 10.00 Fair CLR 77.9 67.1 70% 80 30.13 0.0
19 08:35 E 7 10.00 Fair CLR 76.5 68.4 76% 78 30.13 0.0
19 08:15 E 6 10.00 Fair CLR 74.5 71.2 90% 30.12 0.0
19 07:55 NE 6 10.00 Fair CLR 73 71.8 96% 30.12 0.0
19 07:35 NE 3 7.00 Fair CLR 71.6 0 0% 30.12 0.0
19 07:15 N 3 7.00 Fair with Haze CLR 69.8 0 0% 30.11 0.0
19 06:55 N 5 5.00 Fair with Haze CLR 69.8 0 74.7 69.3 0% 30.1 0.0
19 06:35 Calm 5.00 Fair with Haze CLR 69.8 0 0% 30.1 0.0
19 06:15 N 3 7.00 Fair CLR 70.3 70.2 99% 30.1 0.0
19 05:55 N 5 10.00 Fair CLR 70.7 70 98% 30.09 0.0
19 05:35 Calm 10.00 Fair CLR 70.3 70.3 100% 30.09 0.0
19 05:15 Calm 10.00 Fair CLR 71.2 70.7 98% 30.09 0.0
19 04:55 NE 3 10.00 Fair CLR 71.4 70.9 98% 30.08 0.0
19 04:35 Calm 10.00 Partly Cloudy SCT090 72.1 71.4 98% 30.08 0.0
19 04:15 Calm 10.00 Mostly Cloudy SCT055 BKN070 BKN090 73.8 70.7 90% 30.09 0.0
19 03:55 Calm 10.00 Overcast SCT055 OVC070 74.1 71.1 90% 30.09 0.0
19 03:35 E 3 10.00 Overcast BKN070 OVC090 73.8 70.7 90% 30.09 0.0
19 03:15 E 3 10.00 Overcast BKN070 OVC090 74.3 70.9 89% 30.09 0.0
19 02:55 E 3 10.00 Overcast BKN070 OVC090 74.3 70.9 89% 30.09 0.0
19 02:35 E 3 10.00 Overcast SCT080 OVC090 74.1 70.9 90% 30.09 0.0
19 02:15 E 5 10.00 Overcast SCT070 OVC090 74.3 70.9 89% 30.09 0.0
19 01:55 E 5 10.00 Overcast SCT043 BKN070 OVC090 74.7 71.1 89% 30.09 0.0
19 01:35 E 6 10.00 Overcast BKN042 OVC090 74.3 71.1 90% 30.09 0.0
19 01:15 E 5 10.00 Mostly Cloudy BKN040 73.9 71.4 92% 30.09 0.0
19 00:35 SE 5 10.00 Fair CLR 75 72.1 91% 74 30.08 0.0
19 00:15 E 5 10.00 Fair CLR 74.5 73 95% 30.09 0.0
18 23:55 E 3 10.00 Partly Cloudy SCT060 SCT070 74.7 73.9 98% 30.09 0.0
18 23:35 Calm 10.00 Partly Cloudy SCT060 73.4 73.4 100% 30.09 0.0
18 23:15 Calm 10.00 Fair CLR 75.7 73.2 92% 75 30.09 0.0
18 22:55 SE 3 10.00 Fair CLR 76.6 72.7 88% 78 30.08 0.0
18 22:35 E 3 10.00 Fair CLR 77 72.5 86% 78 30.08 0.0
18 22:15 SE 8 10.00 Fair CLR 77.5 72.3 84% 79 30.07 0.0
18 21:55 E 6 10.00 Fair CLR 77.5 72.9 86% 79 30.06 0.0
18 21:35 E 6 10.00 Fair CLR 77.9 73.2 86% 80 30.05 0.0
18 21:15 E 3 10.00 Fair CLR 78.8 73 83% 82 30.05 0.0
18 20:55 E 5 10.00 Fair CLR 79.3 73.6 83% 83 30.04 0.0
18 20:35 Calm 10.00 Fair CLR 80.2 74.7 83% 85 30.03 0.0
18 20:15 NE 5 10.00 Partly Cloudy SCT095 81.5 73.4 77% 87 30.03 0.0
18 19:55 NE 5 10.00 Overcast OVC095 82.4 73.6 75% 88 30.02 0.0
18 19:35 NE 6 10.00 Overcast SCT070 OVC095 82.6 73.6 74% 89 30.02 0.0
18 19:15 NE 5 10.00 Mostly Cloudy BKN095 82.2 73.9 76% 88 30.02 0.0
18 18:55 E 3 10.00 Mostly Cloudy SCT065 BKN095 82 74.1 90.9 71.6 77% 88 30.02 0.0 0.01
18 18:35 NE 3 10.00 Mostly Cloudy SCT065 BKN085 82.2 72.3 72% 87 30.01 0.0
18 18:15 NE 6 10.00 Partly Cloudy SCT085 82.2 70.9 69% 87 30.01 0.0
18 17:55 NE 7 10.00 Partly Cloudy SCT085 84 71.1 65% 89 30.02 0.0
18 17:35 E 8 10.00 Fair CLR 84.6 70 62% 89 30.03 0.0
18 17:15 E 6 10.00 Partly Cloudy SCT100 83.3 70.5 65% 88 30.03 0.0
18 16:55 E 10 10.00 Mostly Cloudy SCT043 SCT050 BKN090 80.8 71.8 74% 85 30.03 0.0
18 16:35 E 13 10.00 Overcast SCT036 BKN050 OVC065 78.8 73.2 83% 82 30.05 0.0
18 16:15 E 16 G 25 10.00 Mostly Cloudy SCT025 SCT033 BKN043 78.8 72.7 82% 82 30.05 0.0
18 15:55 NE 7 10.00 Partly Cloudy SCT110 83.3 76.8 81% 92 30.04 0.0 0.01
18 15:35 NE 5 10.00 Partly Cloudy SCT028 SCT040 SCT070 79.7 78.3 95% 86 30.05 0.0
18 15:15 SE 3 3.50 Heavy Rain Fog/Mist SCT036 BKN050 OVC060 74.7 72.7 94% 30.06 0.0
18 14:55 S 7 3.00 Fog/Mist SCT010 BKN046 OVC050 71.8 71.4 99% 30.07 0.0 0.01
18 14:35 N 10 G 28 0.75 Heavy Rain Fog/Mist OVC010 72.5 71.1 95% 30.09 0.0 0.01
18 14:15 SW 5 10.00 Thunderstorm Light Rain SCT035 BKN045 OVC055 84.2 71.6 66% 90 30.05 0.0
18 13:55 SE 9 10.00 Mostly Cloudy SCT030 SCT036 BKN060 87.4 72.1 61% 94 30.06 0.0
18 13:35 E 12 10.00 Partly Cloudy SCT034 SCT040 88.9 72.1 58% 96 30.06 0.0
18 13:15 E 13 G 17 10.00 Partly Cloudy SCT037 SCT055 SCT065 89.6 71.4 55% 96 30.07 0.0
18 12:55 E 9 10.00 Overcast BKN037 BKN045 OVC065 89.2 70.9 89.8 71.6 55% 95 30.07 0.0
18 12:35 E 7 10.00 Overcast SCT033 BKN045 OVC055 88.9 71.8 57% 96 30.08 0.0
18 12:15 E 9 10.00 Mostly Cloudy SCT033 BKN050 BKN100 88.3 70.7 56% 94 30.09 0.0
18 11:55 E 10 10.00 Partly Cloudy SCT033 SCT050 88.2 70.5 56% 94 30.09 0.0
18 11:35 E 14 10.00 Partly Cloudy SCT031 SCT045 SCT090 87.4 70.3 57% 93 30.09 0.0
18 11:15 E 12 G 16 10.00 Mostly Cloudy BKN028 BKN045 BKN090 87.4 72 60% 94 30.09 0.0
18 10:55 E 10 G 16 10.00 Mostly Cloudy BKN024 BKN039 BKN060 86.2 72.5 64% 93 30.09 0.0
18 10:35 E 9 10.00 Mostly Cloudy BKN022 BKN060 84.2 73.8 71% 91 30.08 0.0
18 10:15 NE 7 10.00 Overcast SCT018 SCT025 OVC060 82 73.2 75% 88 30.09 0.0
18 09:55 N 7 10.00 Mostly Cloudy SCT018 BKN060 80.8 73.6 79% 86 30.09 0.0
18 09:35 NE 8 10.00 Partly Cloudy SCT060 80.8 73 77% 85 30.09 0.0
18 09:15 NE 8 10.00 Partly Cloudy SCT012 80.2 73.9 81% 85 30.09 0.0
18 08:55 NE 9 10.00 Partly Cloudy SCT010 78.6 73.8 85% 82 30.08 0.0
18 08:15 NW 7 10.00 Fair CLR 75.7 73.4 92% 75 30.08 0.0
18 07:35 N 3 7.00 Fair CLR 73.4 0 0% 30.05 0.0
18 07:15 Calm 7.00 Fair CLR 71.6 0 0% 30.05 0.0
18 06:55 N 3 7.00 Fair with Haze CLR 71.6 0 75.6 71.2 0% 30.04 0.0
18 06:35 Calm 7.00 Fair with Haze CLR 71.6 0 0% 30.03 0.0
18 06:15 N 3 7.00 Partly Cloudy with Haze SCT043 SCT050 71.6 0 0% 30.04 0.0
18 05:55 N 3 7.00 Overcast SCT041 OVC050 73.4 0 0% 30.04 0.0
18 05:35 Calm 7.00 Overcast SCT039 OVC050 73.4 0 0% 30.04 0.0
18 05:15 Calm 10.00 Overcast OVC050 73.4 0 0% 30.03 0.0
18 04:55 Calm 10.00 Mostly Cloudy SCT033 BKN043 BKN050 73.4 0 0% 30.03 0.0
18 04:35 Calm 10.00 Partly Cloudy SCT036 SCT045 SCT085 73.4 0 0% 30.03 0.0
18 04:15 Calm 10.00 Partly Cloudy SCT085 73.4 0 0% 30.03 0.0
18 03:55 SE 3 10.00 Partly Cloudy SCT035 73.4 0 0% 30.03 0.0
18 03:15 E 3 10.00 Overcast SCT070 OVC085 74.3 74.3 100% 30.03 0.0
18 02:55 Calm 10.00 Overcast BKN070 OVC085 74.3 73.9 99% 30.04 0.0
18 02:35 Calm 10.00 Overcast BKN070 OVC085 74.1 73.9 99% 30.04 0.0
18 02:15 Calm 10.00 Partly Cloudy SCT070 73.9 73.6 99% 30.03 0.0
18 01:55 N 3 10.00 Fair CLR 74.1 73.6 98% 30.03 0.0
18 01:35 Calm 10.00 Fair CLR 74.5 73.8 98% 30.03 0.0
18 01:15 NW 3 10.00 Partly Cloudy SCT070 75.2 73.9 96% 73 30.03 0.0
18 00:55 Calm 10.00 Mostly Cloudy SCT045 BKN060 BKN070 75.6 74.5 77.7 74.7 96% 74 30.04 0.0
18 00:35 Calm 10.00 Overcast SCT043 BKN050 OVC065 75.7 74.7 96% 75 30.04 0.0
18 00:15 Calm 10.00 Overcast SCT049 BKN055 OVC100 75 74.5 98% 73 30.04 0.0
17 23:55 Calm 10.00 Overcast SCT060 OVC100 75.2 74.3 97% 73 30.04 0.0
17 23:35 Calm 10.00 Overcast OVC100 74.8 74.3 98% 30.03 0.0
17 23:15 Calm 10.00 Overcast OVC110 74.8 74.1 98% 30.03 0.0
17 22:55 Calm 10.00 Overcast OVC110 75.2 74.1 96% 73 30.04 0.0
17 22:35 Calm 10.00 Overcast OVC110 75.4 74.3 96% 74 30.04 0.0
17 22:15 Calm 10.00 Overcast BKN075 BKN090 OVC110 75.4 74.1 96% 74 30.04 0.0
17 21:55 Calm 10.00 Overcast SCT075 OVC090 75.7 74.1 95% 75 30.03 0.0
17 21:35 Calm 10.00 Overcast SCT070 OVC090 75.9 73.9 94% 75 30.03 0.0
17 21:15 Calm 10.00 Overcast SCT070 OVC100 75.9 73.9 94% 75 30.03 0.0
17 20:55 Calm 10.00 Overcast SCT075 OVC100 75.7 73.8 94% 75 30.02 0.0
17 20:35 E 5 10.00 Overcast SCT075 OVC100 76.1 73.8 93% 76 30.01 0.0
17 20:15 Calm 10.00 Mostly Cloudy SCT075 BKN100 76.6 73.6 90% 77 30 0.0
17 19:55 Calm 10.00 Partly Cloudy SCT100 76.8 73.4 89% 78 30.01 0.0
17 19:35 S 5 10.00 Partly Cloudy SCT027 SCT038 SCT100 77.4 73.4 88% 79 30 0.0
17 19:15 SE 6 10.00 Partly Cloudy SCT027 SCT038 77.5 73 86% 79 30 0.0
17 18:55 S 5 10.00 Fair CLR 77.2 72.7 84.7 75.4 86% 79 30 0.0
17 18:35 S 6 10.00 Fair CLR 76.3 72.5 88% 77 30.01 0.0
17 18:15 S 5 10.00 Partly Cloudy SCT100 75.9 72.1 88% 76 30.01 0.0
17 17:55 S 6 10.00 Fair CLR 75.7 71.8 88% 76 30 0.0
17 17:35 Calm 10.00 Fair CLR 75.6 71.2 87% 76 29.99 0.0
17 17:15 S 10 10.00 Mostly Cloudy BKN110 76.1 70.3 82% 77 29.99 0.0
17 16:55 S 12 10.00 Partly Cloudy SCT110 77.2 70.3 80% 79 30 0.0
17 16:35 S 8 10.00 Partly Cloudy SCT110 78.4 71.2 79% 81 30 0.0
17 16:15 S 7 10.00 Fair CLR 78.8 71.6 79% 82 30 0.0
17 15:55 S 7 10.00 Partly Cloudy SCT120 79.3 72.5 80% 83 30 0.0
17 15:35 Calm 10.00 Thunderstorm in Vicinity BKN120 81.1 75.2 82% 87 29.99 0.0
17 14:55 Calm 10.00 Fair CLR 81.9 74.7 79% 88 29.99 0.0
17 14:35 N 5 10.00 Fair CLR 82.4 75.6 80% 90 29.98 0.0
17 14:15 Calm 10.00 Fair CLR 82.8 74.5 76% 90 29.99 0.0
Date Time (cdt) Wind (mph) Vis. (mi.) Weather Sky Cond. Air Dwpt Max. Min. Relative Humidity Wind Chill (°F) Heat Index (°F) altimeter (in) sea level (mb) 1 hr 3 hr 6 hr
6 hour
Temperature (ºF) Pressure Precipitation (in)